sat.trackr.live / text

‹ back to catalog

STARLINK-1646

NORAD 46351 · 2020-062AC

PAYLOAD ACTIVE UNKNOWN

§ Identity

Operator
Country
US
Launch date
2020-09-03
Launch site
AFETR
Launch vehicle
Mass (kg)
RCS (m²)

Purposes: comms

External: N2YO · Heavens-Above · Gunter

§ Orbital elements

Epoch: 2026-08-10T06:49:54.756192Z

Period
88.10 min
Inclination
53.0145°
Eccentricity
0.0008553
Mean motion
16.34475654 rev/d
Perigee alt
174.9 km
Apogee alt
186.1 km
Semi-major
6,558.7 km
B*
7.2699e-4
RAAN
287.4277°
Arg perigee
326.0529°
Mean anomaly
33.9966°
Rev number
32,914

§ Raw data

STARLINK-16461 46351U 20062AC  26222.28466153  .05391627  12280-4  72699-3 0  99942 46351  53.0145 287.4277 0008553 326.0529  33.9966 16.34475654329144

JSON: /api/v1/satellites/46351 · /tle

For live sub-satellite position, see the globe view (requires WebGL).

§ Visibility from observer

Set your observer location to see the next 7 days of passes ≥ 10°. The values pass through the URL so the page stays shareable.

No JS? Fill the form by hand. The geolocation button needs JavaScript.